Theta_e
302 295 293 293 296 297 299 300 300 301 302 301 301 299 298 299 300 303 304 305 307 303 302 304 304 309 310 315 318 319 324 323 326 327 327 327 328 328 328 328 329 331 330 330 330 331 331 332 333 334 335 337 337 338 339 336 334 334 333 335 334 337 338 339 340 337 339 338 340 338 338 339 344 341 342 345 344 342 349 346 345 347 348 348 345 347
301 294 294 297 299 300 300 301 301 301 302 301 300 299 298 301 299 302 302 305 306 303 301 304 304 308 311 316 319 317 319 317 320 324 325 325 327 329 329 329 330 329 329 329 328 329 331 330 330 333 334 334 334 334 334 332 333 334 334 335 335 336 334 337 338 339 342 341 342 338 339 340 341 339 340 339 343 345 347 347 347 349 349 349 349 348
294 293 297 300 301 302 302 301 301 300 300 301 300 299 298 299 302 303 303 305 305 303 300 303 306 307 311 314 320 317 317 319 321 324 324 326 326 327 329 329 328 327 326 328 329 330 330 331 331 331 331 333 333 332 331 332 332 334 333 336 334 335 335 336 337 337 341 341 342 344 342 339 342 342 342 342 344 346 345 346 347 348 347 346 346 345
291 295 299 302 302 300 300 300 300 300 301 300 300 298 296 300 299 297 302 303 304 302 302 303 304 308 314 318 319 320 320 319 319 323 327 326 325 324 328 328 327 327 327 328 328 328 329 329 329 329 329 330 331 331 332 332 333 333 335 333 334 336 336 339 339 342 341 342 345 347 343 344 342 341 342 343 343 343 343 342 344 345 342 342 342 341
294 299 302 302 301 300 299 299 299 299 297 300 300 300 298 299 300 300 300 302 304 304 306 305 306 309 312 312 314 319 323 321 323 322 323 326 325 327 331 329 329 328 328 327 328 327 326 325 326 328 330 330 330 330 331 332 334 335 336 336 334 333 335 336 338 341 340 342 345 344 343 343 341 341 340 339 338 340 341 340 341 341 341 341 341 341
297 301 303 301 300 300 299 297 298 299 296 298 301 301 301 301 301 302 302 301 299 298 304 303 297 301 310 310 311 317 320 318 326 320 319 322 324 327 326 327 329 330 329 329 328 327 327 327 327 329 330 331 331 333 334 335 335 334 334 335 333 336 339 339 342 343 343 341 340 340 337 335 335 333 334 334 335 336 336 336 340 340 340 339 338 338
298 302 301 299 299 298 298 297 299 300 297 296 297 302 302 302 302 302 301 299 295 293 300 306 296 293 307 307 310 315 316 318 318 320 320 319 325 326 326 327 328 328 328 329 328 327 327 327 327 327 329 329 329 332 333 336 335 337 336 337 337 337 337 339 340 342 341 340 340 338 337 336 334 332 333 336 337 336 336 338 337 337 338 337 337 337
300 300 299 300 299 297 296 296 299 300 298 295 302 302 302 302 301 302 302 300 298 302 305 305 302 296 298 304 309 314 313 315 317 318 319 319 324 327 326 327 329 327 327 326 327 327 327 327 327 326 328 328 330 333 333 333 335 335 335 335 335 336 336 338 339 339 340 338 337 337 336 335 335 333 333 334 335 336 336 335 335 335 334 334 334 334
299 297 298 297 298 296 295 298 300 301 297 298 302 302 301 301 302 304 301 300 300 300 296 300 303 296 296 304 311 313 309 313 316 317 321 322 322 326 327 327 329 328 327 327 326 326 326 326 326 327 328 330 332 332 332 332 334 334 334 334 335 334 334 335 336 335 336 336 336 334 334 333 334 334 332 332 333 333 334 332 333 333 333 333 333 331
299 300 300 300 298 295 299 300 301 300 297 302 304 304 303 302 303 303 301 300 299 297 292 298 301 294 295 303 307 312 308 310 314 316 318 321 322 323 326 328 328 330 329 328 327 326 326 327 327 329 329 329 329 332 332 332 332 332 332 331 332 331 332 333 333 333 334 335 336 334 333 331 330 331 331 332 331 331 332 330 330 331 329 328 328 329
300 304 303 300 297 299 300 301 302 301 301 304 303 301 300 300 300 301 300 299 297 289 294 300 302 298 291 299 305 307 307 310 313 314 318 320 324 324 324 326 329 329 328 326 325 326 327 328 328 329 327 327 329 330 331 331 330 331 330 330 329 330 330 330 331 331 331 333 333 333 332 332 331 330 330 329 328 328 329 328 327 328 327 327 326 327
300 300 299 300 303 302 302 299 302 303 302 302 299 298 297 296 299 298 297 298 290 289 296 300 301 300 290 298 307 311 312 313 313 312 315 319 323 319 321 326 327 326 326 323 323 324 325 326 327 327 325 326 327 327 328 328 329 329 329 329 328 329 329 329 329 329 329 329 330 330 329 328 328 327 326 326 325 325 324 324 324 325 324 324 324 323
296 297 300 300 303 301 299 298 298 300 301 300 298 298 292 290 290 287 292 286 288 289 296 299 301 297 295 301 306 309 313 313 315 315 316 319 320 319 324 325 326 326 324 322 323 324 324 323 324 324 324 324 324 324 326 327 328 327 328 328 327 326 327 327 327 326 326 325 326 326 326 325 325 325 325 324 323 323 323 322 322 323 322 321 320 320
295 299 298 298 299 302 300 294 294 294 297 297 295 295 291 287 285 283 287 289 291 295 299 298 301 295 300 302 309 311 312 313 315 315 319 321 321 319 323 324 325 325 323 323 323 324 325 324 324 324 324 324 324 325 325 326 326 326 326 326 325 324 325 325 325 324 323 323 323 324 323 323 323 323 323 322 322 322 321 321 320 321 320 319 318 318
287 288 294 296 293 301 299 299 298 296 296 296 299 297 294 293 288 282 287 284 287 291 295 300 295 292 294 297 309 312 313 313 314 315 320 323 324 324 324 325 325 323 324 323 323 324 324 324 324 324 324 324 324 324 324 325 325 325 325 324 324 323 324 324 323 322 321 321 321 321 322 322 322 321 320 319 320 320 319 319 319 319 318 317 317 316
292 292 297 300 299 300 298 301 302 299 297 298 299 300 295 294 298 289 291 292 292 291 291 294 293 298 299 310 316 313 313 313 315 317 321 323 323 324 323 322 321 322 323 324 324 324 325 324 324 324 324 323 323 323 323 324 324 324 324 324 323 322 322 321 321 320 320 319 320 320 320 320 320 320 319 318 318 319 319 318 317 316 317 317 317 316
294 292 298 299 301 299 299 301 301 302 290 296 297 293 296 302 300 293 293 298 294 291 289 295 296 301 306 310 313 311 311 312 318 321 321 323 323 323 321 321 321 321 322 324 323 324 324 323 323 323 323 323 323 323 322 322 323 323 323 323 322 321 321 320 319 318 318 318 318 318 318 318 318 318 317 316 317 318 318 318 316 316 316 316 316 316
292 292 298 297 296 300 303 302 302 302 302 298 292 296 302 304 303 297 288 290 290 287 288 295 292 295 297 294 309 311 309 312 312 318 321 322 322 321 321 322 321 322 324 324 324 325 324 323 322 322 321 322 321 321 322 322 323 323 323 322 321 320 319 318 318 317 317 317 316 316 317 317 317 316 316 316 316 317 316 316 316 316 315 315 316 315
299 290 295 298 298 300 302 301 299 302 303 299 296 304 295 290 290 296 293 285 285 285 288 293 295 295 297 299 304 306 306 309 314 316 318 318 319 320 321 322 322 323 323 322 321 322 321 321 320 320 320 321 321 321 321 321 322 322 322 322 320 319 318 318 318 317 317 316 316 316 316 316 316 316 315 315 316 316 315 314 314 314 314 315 315 315
300 291 292 299 298 299 300 298 290 295 300 302 303 299 302 300 295 292 292 296 293 286 287 289 294 291 301 304 305 305 307 309 313 315 316 317 318 319 320 321 321 320 319 319 319 320 320 320 320 320 319 319 319 319 320 320 320 320 320 320 319 319 318 317 316 316 315 315 315 314 315 315 315 315 315 315 315 314 314 314 314 314 314 314 314 315
295 300 287 295 300 299 292 296 294 295 293 295 296 296 297 299 301 300 299 295 291 288 288 288 288 294 302 309 307 307 308 310 314 316 317 317 318 320 321 320 319 318 318 319 319 319 319 319 319 319 320 319 319 319 319 318 318 318 318 318 317 318 316 315 316 315 314 314 313 313 313 313 314 314 314 314 314 314 314 314 314 314 314 314 314 314
294 295 289 293 293 292 294 299 299 299 298 297 296 295 297 295 293 289 288 298 296 292 288 287 286 297 306 311 310 308 310 312 316 318 316 316 318 320 320 320 318 317 319 320 321 319 318 319 319 320 319 319 318 317 317 316 316 317 317 316 317 316 314 314 313 314 313 313 313 313 313 313 314 313 314 313 313 313 313 313 313 314 313 313 312 312
301 299 296 289 292 294 297 300 302 303 301 300 298 297 299 299 298 293 286 291 295 295 297 295 290 294 311 311 311 311 311 313 318 319 316 317 318 319 319 319 319 319 319 320 320 318 318 318 319 318 318 318 317 317 316 315 315 316 316 317 317 315 315 314 313 313 313 312 312 312 313 312 313 313 313 312 312 313 312 313 313 313 312 311 311 311
303 295 293 292 296 298 300 302 302 302 301 298 299 300 299 296 297 296 295 298 293 294 292 292 288 297 309 317 313 312 312 317 320 319 316 317 317 318 317 318 318 317 318 320 320 318 317 317 318 317 317 317 316 316 315 315 315 315 315 316 315 313 313 313 313 313 312 311 311 312 312 312 312 312 312 311 312 312 312 311 311 311 311 311 310 309
292 296 295 289 290 292 294 297 297 300 300 297 296 298 299 299 299 300 299 301 292 295 294 292 286 293 311 315 315 313 315 317 317 317 317 316 317 317 316 317 317 317 316 316 317 316 317 318 317 316 316 316 315 315 315 314 314 314 315 314 314 313 313 313 313 312 311 311 310 311 311 311 311 311 311 311 311 311 311 311 311 311 309 310 309 309
296 296 294 287 284 281 282 284 286 289 294 298 299 298 298 298 299 297 291 294 289 295 296 292 291 304 309 313 313 316 315 315 316 316 318 318 317 315 316 316 316 316 315 316 316 315 315 316 316 316 316 315 314 314 314 314 314 314 314 314 314 313 312 312 312 311 311 311 310 310 311 311 311 311 311 311 311 311 311 310 310 309 310 309 308 308
296 300 298 295 291 289 292 294 298 298 296 293 296 297 297 298 299 300 298 292 290 294 293 297 298 302 306 307 309 312 313 314 315 316 315 315 316 316 317 316 316 316 315 315 314 314 314 314 315 315 315 316 316 315 315 314 314 314 313 313 313 313 312 312 311 311 310 310 311 309 310 310 310 311 310 310 310 310 309 309 309 309 308 309 308 308
297 294 297 299 297 297 298 297 298 298 295 296 296 296 298 297 298 298 293 291 299 295 290 297 301 300 303 306 308 311 313 313 315 315 314 313 314 314 316 316 313 315 314 314 313 313 312 312 313 313 315 315 314 314 314 314 314 313 312 311 312 311 312 312 311 310 310 310 309 309 309 310 310 309 309 309 309 309 309 309 308 308 309 309 308 308
298 291 297 298 297 298 299 298 299 298 297 297 297 298 297 298 298 296 297 299 300 292 291 299 300 299 302 307 308 312 314 314 315 314 313 313 314 314 314 313 312 312 312 312 313 313 313 313 312 312 313 313 313 313 313 313 313 313 312 312 312 311 311 311 311 310 310 309 309 308 308 308 308 308 308 308 308 308 308 308 308 308 308 308 308 308
299 294 298 298 297 298 299 299 300 298 297 297 297 297 298 298 298 298 298 299 300 299 299 300 300 301 303 306 310 312 316 317 316 315 314 313 312 312 312 311 310 311 311 311 312 312 312 312 312 312 313 312 312 313 313 312 312 312 311 311 311 311 311 311 310 309 309 308 307 307 307 307 307 307 307 307 307 307 307 307 308 308 308 307 307 307
297 292 297 298 295 295 298 299 298 299 298 296 297 298 298 298 298 299 299 300 300 299 300 301 301 300 305 308 309 316 317 318 316 313 313 313 313 311 310 310 310 310 310 310 311 312 312 313 312 311 311 311 312 312 312 312 312 312 311 311 310 310 311 310 310 309 307 306 306 306 306 306 305 306 306 306 307 306 306 306 306 306 306 306 306 306
299 294 298 297 290 293 297 297 298 298 298 297 297 297 297 297 296 299 296 300 299 297 299 300 298 299 308 309 312 316 317 315 313 313 313 313 313 312 310 310 309 310 310 309 310 312 311 311 310 310 310 311 312 312 312 311 312 312 310 310 310 310 311 310 309 308 306 305 306 305 305 305 305 305 304 305 304 304 304 304 304 304 304 305 305 306
297 297 292 292 289 290 297 297 298 297 296 292 292 297 299 299 299 300 301 301 301 302 297 293 297 303 307 312 312 314 315 315 314 313 313 314 314 312 312 311 310 310 309 309 308 309 311 311 311 311 311 312 312 311 312 312 311 311 310 310 311 311 310 309 308 306 305 305 305 304 305 304 303 303 303 302 302 302 302 303 303 304 304 304 305 306
299 298 293 297 288 290 296 297 298 292 285 287 304 308 303 299 299 298 298 300 303 303 300 303 303 305 308 310 311 313 314 314 315 316 316 314 312 312 313 313 312 310 309 309 309 309 311 311 311 311 312 312 312 312 312 313 312 311 311 311 310 310 309 307 305 305 304 304 303 303 303 303 302 302 302 301 302 303 303 304 303 305 306 305 306 305
297 297 294 298 290 290 294 295 289 283 287 303 306 310 310 307 302 301 301 303 303 303 303 303 304 304 311 310 311 315 317 318 318 316 315 316 314 313 313 312 311 309 308 308 308 309 310 310 311 311 311 311 311 311 312 311 312 311 310 310 309 309 307 306 304 303 302 302 302 302 302 301 302 302 303 303 304 305 304 304 304 304 305 305 305 305
294 294 294 293 293 293 291 290 282 285 299 303 307 306 310 308 305 303 300 303 304 304 304 303 304 305 310 312 313 316 317 317 317 317 316 316 316 314 313 311 311 310 309 308 309 310 310 310 310 310 311 311 311 311 311 310 310 309 309 310 309 307 305 304 303 302 302 302 302 303 303 302 302 302 302 303 303 304 303 304 304 304 305 305 305 305
299 297 295 291 295 287 289 289 288 297 299 302 300 305 302 301 302 299 292 298 305 305 304 303 304 305 309 314 314 316 317 316 313 313 317 316 316 316 315 315 314 313 311 311 311 310 312 313 312 311 311 311 311 310 310 309 308 308 307 307 306 304 303 303 303 303 303 302 303 302 302 302 302 302 302 302 302 302 303 303 303 304 304 304 304 304
301 295 297 292 289 293 290 288 288 288 285 291 300 307 309 309 308 306 300 296 306 307 307 305 304 305 310 314 315 315 316 310 307 309 314 315 316 316 317 317 316 314 313 311 311 312 312 312 312 311 310 310 310 310 309 308 307 306 305 304 303 303 303 303 302 302 302 302 302 302 302 303 302 302 302 302 302 302 303 303 303 303 304 303 302 302
301 301 299 293 291 291 289 287 287 285 288 297 301 306 311 311 311 308 299 292 302 305 306 306 305 307 312 313 314 314 309 303 305 309 314 316 315 315 314 316 315 313 313 313 312 310 311 311 311 310 310 310 308 308 308 307 306 305 304 304 303 303 303 303 302 302 302 302 303 303 303 303 303 302 302 302 303 304 303 303 304 304 304 303 303 303
298 294 294 292 289 291 289 287 287 290 289 301 306 307 310 313 313 306 289 289 303 306 307 307 306 310 314 315 314 311 307 301 306 311 316 316 316 316 315 315 314 313 312 312 312 312 311 310 309 309 309 308 307 308 308 307 306 306 305 304 304 303 303 303 303 303 303 303 303 303 303 304 303 303 303 303 303 304 304 304 304 304 303 303 303 303
292 292 293 290 290 290 287 289 290 291 300 308 308 309 310 312 307 291 287 299 310 309 309 309 308 313 316 314 313 308 311 313 316 318 317 317 315 314 314 315 313 312 310 310 310 308 309 309 310 310 308 308 308 307 307 307 306 304 304 303 303 303 303 304 304 303 303 303 303 303 303 303 304 304 304 304 304 304 304 305 304 304 303 303 304 304
291 291 292 293 290 289 290 288 288 291 305 309 309 310 311 304 291 290 304 311 315 311 311 310 312 315 316 315 313 313 315 316 318 317 316 315 315 315 314 313 312 311 311 310 308 309 310 308 308 309 309 308 308 307 307 306 305 304 303 303 303 304 304 304 303 304 303 303 303 303 303 304 304 304 304 304 305 304 304 305 305 305 304 303 303 303
292 288 288 289 291 292 291 289 287 284 297 312 310 307 309 296 295 306 310 312 316 314 314 313 314 316 316 314 315 317 315 316 316 315 315 315 315 314 313 312 310 309 309 308 309 310 308 307 307 307 307 307 308 307 307 306 304 304 303 303 304 304 304 304 304 303 303 303 303 303 304 305 305 306 306 306 305 304 303 304 305 305 305 304 303 302
299 290 290 291 295 289 288 286 287 295 305 312 308 297 306 310 312 315 312 310 314 314 315 314 316 318 317 316 315 314 315 315 315 315 315 315 314 313 313 312 312 310 309 308 309 309 308 307 306 306 306 307 307 307 306 305 303 303 303 303 304 304 304 303 303 303 303 303 303 303 304 304 305 306 306 306 305 305 304 303 304 303 303 303 302 301
300 296 300 293 297 293 291 294 304 310 310 312 314 313 313 313 315 316 315 313 313 314 317 314 315 317 318 316 315 314 313 314 313 314 313 313 313 311 311 311 311 308 308 308 307 307 307 306 305 305 306 306 306 306 306 305 304 303 303 304 304 304 303 303 303 303 302 302 302 303 303 304 305 306 306 305 305 304 304 304 304 303 303 303 302 301
305 307 309 302 298 305 305 307 310 308 310 311 312 314 313 312 313 316 317 314 315 315 316 315 317 317 317 317 314 313 312 313 313 313 312 311 311 311 312 311 309 308 309 307 305 305 306 306 305 305 304 305 306 305 305 305 305 304 304 304 304 303 303 303 303 302 302 302 302 302 303 304 304 305 306 306 305 305 304 304 303 303 302 302 301 301
307 306 303 297 303 298 291 305 304 308 309 312 311 312 313 314 313 314 315 316 315 316 317 318 318 318 317 317 314 313 312 313 312 312 311 310 309 310 311 309 308 309 308 305 305 305 305 305 304 304 304 304 305 305 305 305 305 305 304 304 303 304 304 303 302 302 302 302 302 303 303 304 303 303 304 304 304 304 304 304 303 303 301 303 302 301
301 307 302 301 302 296 295 305 307 310 312 312 311 310 310 312 312 312 315 316 316 317 317 317 318 317 318 316 314 312 313 313 311 310 309 309 309 309 309 308 308 308 308 307 306 306 306 305 304 304 304 303 304 304 305 305 305 304 304 303 303 304 303 302 302 302 302 302 303 302 303 303 296 300 303 303 303 302 302 303 302 301 301 300 301 302
305 304 296 303 301 303 305 307 307 308 310 310 312 312 313 313 313 312 313 314 316 316 316 317 318 317 317 315 315 313 312 312 311 310 308 308 309 309 307 307 308 307 307 305 305 306 306 306 305 304 304 303 304 304 305 305 304 304 304 303 303 303 302 302 301 302 303 303 303 303 304 302 302 303 303 304 305 304 304 304 304 301 299 300 300 299
303 299 304 300 296 297 298 303 306 298 295 305 309 311 313 314 314 313 313 313 313 314 315 314 316 317 316 316 314 313 311 311 310 310 308 308 309 309 308 307 307 306 306 306 306 306 307 306 305 304 304 304 304 304 304 304 303 303 303 303 303 303 302 302 302 303 302 303 303 303 301 303 303 302 301 301 300 299 300 290 290 298 301 299 290 283
301 305 305 297 296 295 303 307 310 310 308 309 312 313 313 314 313 312 312 312 313 315 315 315 314 313 314 314 314 313 311 311 310 310 309 308 309 308 308 307 306 305 305 305 305 306 306 305 304 304 303 303 304 303 303 302 302 302 302 303 303 304 303 303 302 302 302 302 302 300 301 303 303 302 302 301 299 298 297 298 300 288 290 294 293 292
Wind_Speed
13 16 18 20 18 20 21 21 20 17 13 14 15 16 16 12 14 13 10 17 17 14 17 15 16 12 10 9 12 11 7 6 10 11 11 12 9 8 10 14 14 14 13 13 14 13 13 7 4 4 3 2 3 6 6 7 6 7 4 3 1 1 3 2 4 4 5 5 5 3 3 6 5 5 5 3 5 6 2 4 5 5 3 3 4 3
15 17 19 21 19 19 20 19 20 21 14 14 15 16 14 14 12 12 9 16 16 15 14 15 14 12 7 8 10 14 11 9 10 10 11 12 11 8 9 13 14 14 13 15 14 14 10 7 7 4 3 2 4 6 8 5 5 7 5 9 6 4 3 4 6 4 3 0 5 7 6 6 7 7 4 4 4 5 6 5 5 4 4 4 3 3
18 21 20 20 19 17 18 19 20 21 13 13 11 14 15 13 12 15 11 13 15 14 13 15 11 11 8 7 9 13 15 11 9 11 12 12 11 9 8 9 11 13 14 14 14 14 14 13 11 8 4 3 4 4 7 6 5 6 4 4 7 4 5 7 4 6 5 3 2 4 6 6 6 8 6 6 6 6 6 5 5 5 4 3 3 3
18 17 20 19 19 19 19 20 20 19 12 11 10 12 14 13 17 12 11 15 14 13 9 15 12 8 9 5 5 9 13 10 17 13 10 11 11 9 9 9 8 13 15 14 13 12 11 13 9 9 6 6 7 4 5 4 5 6 6 5 6 7 6 6 7 4 2 7 5 7 8 8 8 8 9 8 8 7 6 7 6 4 5 5 5 6
17 14 19 18 20 20 19 19 20 14 11 13 14 12 14 16 10 9 12 14 14 17 8 13 8 8 9 9 8 8 10 15 12 15 14 11 8 11 9 10 10 12 14 16 17 17 16 16 15 10 8 5 4 5 7 7 7 4 5 6 5 5 6 4 5 4 8 5 7 8 10 9 9 7 7 7 6 6 6 6 6 7 7 7 6 6
18 16 19 19 21 20 19 19 21 15 12 13 15 14 13 13 16 14 15 15 12 14 13 16 10 9 10 12 11 9 7 10 7 12 13 11 13 11 11 11 11 12 12 16 16 16 16 18 17 14 11 8 3 5 7 6 5 6 7 8 9 5 5 6 5 5 5 6 6 5 6 7 7 7 7 6 6 6 7 6 6 8 7 7 8 8
14 17 21 21 21 20 19 17 21 17 12 13 13 13 12 15 15 10 15 15 13 15 15 17 14 8 10 13 13 11 11 12 11 9 10 11 12 12 11 12 12 14 13 14 16 17 16 15 17 16 13 10 4 4 8 5 7 5 8 5 6 7 5 4 7 6 6 7 8 9 8 8 8 7 6 6 7 7 6 6 6 7 7 7 7 7
13 20 20 21 21 21 18 17 17 18 13 11 11 18 12 14 14 14 16 14 9 9 13 18 13 10 10 13 15 15 13 13 15 17 18 15 15 13 12 12 12 12 13 13 15 16 16 15 17 17 15 11 4 6 8 6 6 7 8 10 8 8 8 8 8 9 7 7 7 8 8 7 7 7 7 6 5 5 6 6 6 5 6 6 6 6
19 20 22 24 21 18 17 15 18 20 14 8 12 14 9 10 12 15 14 12 11 12 12 14 18 13 10 8 14 16 15 15 16 15 16 18 16 12 13 12 11 12 13 14 14 16 16 16 17 17 15 11 9 7 8 6 7 8 10 10 10 9 9 9 10 9 9 8 7 6 6 7 6 7 6 5 5 5 5 5 5 5 5 5 6 6
15 18 19 18 16 15 15 18 15 20 16 11 12 15 10 6 7 12 13 12 11 9 10 14 17 13 10 12 14 15 15 17 16 16 16 16 17 16 12 11 12 12 13 14 16 16 16 16 17 16 16 13 10 8 7 8 8 8 8 9 9 10 8 8 9 8 8 8 7 7 7 8 6 5 5 5 5 5 4 4 4 4 4 4 4 6
13 11 14 13 16 15 16 16 14 18 19 5 11 14 13 10 8 7 8 10 10 7 12 15 16 15 11 14 15 15 15 15 15 14 14 15 15 14 11 13 12 12 14 14 15 16 16 16 18 17 17 14 12 9 9 8 8 8 8 8 10 9 8 8 8 9 8 8 8 7 7 7 8 7 6 5 5 4 4 4 4 4 4 4 5 6
13 13 13 14 17 14 15 16 15 16 20 10 10 11 11 11 8 8 9 11 11 10 13 16 17 18 15 10 12 13 16 18 16 18 18 17 17 16 11 11 13 14 16 16 15 16 17 17 16 15 17 15 15 12 11 8 7 8 8 8 9 9 9 8 8 9 8 7 9 8 8 8 7 6 5 6 6 4 4 4 3 4 4 4 6 6
17 17 15 16 16 21 17 15 15 16 19 11 12 13 13 10 8 9 10 12 11 9 10 17 17 13 17 7 14 17 15 16 16 14 16 17 16 17 15 15 13 16 16 15 15 15 14 15 16 16 16 15 14 13 13 10 8 8 8 8 9 10 9 9 9 9 9 9 8 8 8 8 7 7 6 6 5 5 5 4 4 4 5 5 5 6
11 15 19 17 16 15 16 17 16 16 18 14 14 14 14 12 12 10 12 7 9 10 8 14 15 13 6 9 12 15 14 14 15 14 16 17 19 18 17 15 15 15 15 15 15 15 14 14 15 16 15 14 13 13 12 10 9 8 7 8 9 10 10 9 9 9 10 9 9 8 8 8 7 7 6 6 5 5 5 5 5 5 5 5 5 6
12 15 18 21 14 18 19 16 14 13 17 15 13 14 12 10 9 9 10 11 11 10 10 11 15 9 12 2 15 12 15 16 15 14 14 16 19 18 16 16 16 17 15 14 15 14 14 15 16 15 15 14 13 13 11 10 9 8 8 8 9 9 9 10 10 10 10 9 9 8 7 7 6 6 6 6 6 6 6 6 6 6 6 6 5 6
16 10 14 20 11 21 17 16 14 17 15 14 12 11 13 12 8 10 6 9 12 10 10 10 6 8 4 4 1 6 13 11 12 12 14 16 18 19 16 16 15 14 16 15 15 15 16 16 15 13 12 13 13 13 11 11 9 8 9 9 10 10 9 10 10 10 9 9 8 8 8 8 7 7 7 6 6 7 7 7 7 6 6 6 5 6
14 11 18 17 12 18 17 17 14 15 12 14 14 15 13 11 12 5 2 5 3 7 9 5 9 7 8 4 5 8 12 12 11 14 15 17 19 19 17 16 16 16 15 15 15 15 18 16 15 14 13 11 11 11 11 11 10 9 9 10 10 10 10 10 10 9 9 9 9 9 8 8 8 8 8 7 8 8 8 7 7 7 6 6 6 5
12 11 18 16 17 17 18 16 13 15 10 11 14 14 11 12 12 7 6 6 7 10 7 11 14 12 10 8 10 9 14 13 14 14 16 17 18 17 16 16 16 17 17 16 15 18 17 16 16 14 12 12 12 12 12 12 10 9 8 8 11 10 10 9 9 9 8 9 9 8 8 9 9 8 8 8 8 8 7 7 7 6 6 6 5 5
13 11 15 19 15 16 18 16 14 14 18 11 13 9 13 11 13 11 6 11 11 10 7 11 15 13 12 9 13 15 15 15 16 15 16 18 16 15 16 18 17 16 17 16 14 14 16 15 15 15 14 14 14 13 12 11 10 9 8 9 11 10 9 8 8 8 8 7 7 7 8 9 9 8 8 8 8 8 8 8 7 7 6 6 5 5
13 9 11 16 14 16 16 15 14 14 17 16 12 15 15 8 10 10 7 7 10 9 10 11 13 9 12 10 19 18 18 18 18 15 16 17 17 15 14 15 17 17 15 15 16 15 16 16 16 16 16 15 14 13 11 11 10 11 9 9 9 10 10 9 9 9 9 9 8 8 8 8 8 9 8 8 8 7 8 8 7 7 6 6 6 6
9 9 9 14 15 17 15 14 15 14 16 15 11 13 14 7 7 8 9 10 10 8 9 6 10 9 9 12 17 19 19 18 18 17 15 15 15 14 14 14 16 17 16 15 16 16 17 17 17 16 16 14 13 12 11 11 11 10 10 10 8 9 10 9 9 9 9 9 9 9 9 9 9 9 9 9 9 8 8 7 6 7 7 6 5 6
6 11 9 14 15 16 14 15 15 17 17 13 10 11 11 12 12 14 11 11 11 10 8 8 8 7 3 10 12 16 16 16 18 17 15 16 17 14 13 15 16 15 16 17 16 16 17 17 17 16 14 13 13 13 12 10 10 10 10 9 8 10 9 9 8 9 9 9 9 9 9 9 9 9 9 9 8 8 8 8 8 6 6 6 6 6
7 9 11 12 14 13 15 17 17 14 16 15 13 11 12 11 10 9 9 10 11 10 9 8 5 5 5 7 10 12 14 16 16 16 15 15 16 14 13 15 15 16 18 17 18 17 16 15 16 16 16 15 14 13 13 10 9 9 9 8 10 10 8 8 9 9 9 9 10 10 9 9 9 9 9 9 9 9 8 7 6 6 6 6 6 6
8 6 11 11 12 13 12 13 16 16 16 15 15 15 13 12 14 10 9 6 7 9 9 4 6 5 2 3 3 11 13 14 13 15 16 15 15 14 16 16 17 17 17 17 14 15 15 15 15 15 15 14 14 13 12 10 10 9 7 5 9 10 10 9 9 10 10 10 10 10 9 9 9 9 9 9 7 8 8 7 7 6 6 6 6 6
6 9 11 12 12 12 13 13 15 15 13 12 12 15 15 12 12 11 10 7 5 9 11 7 7 6 8 3 2 6 15 15 15 14 15 16 15 14 16 16 16 17 17 18 17 16 17 15 15 15 14 14 14 13 11 10 9 8 9 10 10 9 9 9 9 10 10 10 10 10 9 10 9 9 9 8 8 8 8 7 6 6 7 6 6 6
8 9 11 12 15 16 17 16 15 16 17 11 13 16 18 17 15 12 10 9 8 8 15 9 4 4 7 6 9 9 13 14 13 14 13 15 16 16 15 16 17 16 17 18 18 18 17 16 15 14 14 13 13 12 12 11 10 10 10 10 10 10 10 10 10 10 10 10 10 10 10 10 9 9 9 8 8 8 7 7 7 6 6 6 7 7
8 11 12 11 12 11 11 9 8 10 12 13 13 16 18 18 15 12 8 9 10 5 8 10 6 9 10 13 15 12 14 15 16 16 16 14 14 13 13 15 16 16 18 20 19 17 16 13 13 13 12 10 10 12 11 11 11 11 11 11 11 10 10 10 10 10 10 10 10 9 10 9 8 8 8 7 7 7 7 7 7 7 7 6 6 6
10 10 14 12 14 12 13 13 14 16 15 15 14 15 15 18 17 14 8 10 7 7 9 9 11 12 10 15 16 15 15 15 15 14 15 13 12 12 14 14 14 14 15 16 17 19 19 16 14 13 13 13 13 12 12 11 10 11 11 11 10 10 10 9 10 10 10 10 10 9 9 8 8 8 8 7 7 7 7 7 7 7 7 6 6 6
9 7 14 12 7 4 7 15 15 16 16 15 16 14 15 14 17 15 13 12 11 8 7 9 9 9 11 11 16 15 16 16 17 16 15 16 15 14 12 16 18 19 19 18 19 19 19 19 17 17 15 14 14 14 13 11 11 12 11 11 11 10 11 10 10 10 10 10 10 9 9 8 8 7 8 8 8 8 7 7 7 7 7 6 6 5
8 8 13 13 8 7 4 6 11 12 13 15 17 16 14 15 15 16 14 11 12 10 11 4 7 11 11 12 12 13 12 15 15 15 14 18 18 19 17 17 18 19 19 19 20 20 19 19 18 16 15 16 15 14 13 12 11 12 11 11 11 11 11 10 10 10 10 10 10 9 9 9 8 8 8 8 8 7 7 7 7 6 7 7 6 6
8 7 13 13 9 8 7 4 6 9 10 13 14 17 16 15 14 14 13 13 12 13 10 7 6 7 8 12 14 14 13 13 15 18 18 18 20 22 22 21 19 19 18 19 20 19 19 19 19 18 17 16 16 15 14 12 11 12 12 11 11 11 11 10 10 10 10 11 10 10 9 9 8 8 8 8 7 7 8 7 6 7 7 7 6 6
11 4 9 11 9 12 10 8 10 10 10 11 12 15 17 16 16 14 12 12 13 12 12 9 8 9 4 7 12 15 14 17 18 18 18 17 19 21 21 21 22 22 20 16 16 17 19 19 19 18 17 16 15 15 13 12 12 13 12 11 11 11 11 11 11 11 11 11 10 10 9 9 9 9 9 9 9 8 8 7 6 6 6 6 6 5
10 6 7 10 9 8 11 11 9 7 8 9 10 12 13 14 13 13 14 14 13 12 11 8 10 5 7 8 12 14 16 16 17 17 17 17 18 20 21 20 19 20 20 21 18 16 17 17 16 16 15 15 14 13 13 13 12 12 12 12 11 10 11 11 11 11 11 10 10 10 9 9 10 9 9 9 8 7 7 5 5 5 6 6 6 6
11 9 6 10 6 7 11 11 6 6 9 7 1 2 11 15 14 14 13 14 14 14 10 10 8 9 13 12 14 14 16 17 16 15 16 15 15 17 19 20 20 20 20 19 18 16 15 14 16 16 17 16 14 14 13 13 12 12 12 12 12 12 12 12 12 11 11 11 11 10 10 10 10 9 9 8 7 7 7 6 5 5 4 5 5 6
10 7 7 9 6 6 8 7 6 8 5 5 4 3 4 6 10 13 13 15 15 14 13 13 11 12 11 12 13 15 14 13 13 16 17 18 18 18 20 20 21 22 21 22 20 18 19 19 19 19 17 16 14 14 13 13 13 12 13 13 13 12 12 12 12 12 11 11 11 11 10 11 10 9 9 8 8 7 7 6 5 5 4 4 5 5
7 5 5 6 7 4 6 6 7 4 5 3 2 1 2 1 8 11 13 12 13 14 14 13 11 10 8 9 10 10 11 13 12 12 14 16 18 18 19 19 21 22 22 22 21 18 19 21 20 20 18 15 13 13 14 13 13 13 14 13 13 13 12 13 12 12 11 11 11 10 10 10 10 9 9 9 8 8 7 6 5 5 4 5 5 5
11 9 5 6 8 6 6 8 5 7 4 6 3 5 8 10 11 12 8 11 11 12 14 14 14 12 10 8 8 10 12 11 10 10 14 15 17 17 20 19 21 22 21 20 20 20 19 16 17 17 17 17 15 14 14 13 14 14 15 14 13 14 13 12 12 12 11 11 11 11 11 10 10 9 9 9 8 8 6 5 5 5 5 5 5 5
10 10 7 7 5 6 4 7 8 5 6 6 5 4 7 5 8 12 10 10 13 15 14 14 14 12 10 10 11 13 13 10 9 10 14 16 17 17 18 19 20 21 21 21 18 19 19 17 17 17 17 17 16 15 13 14 15 15 15 15 14 14 13 13 12 12 12 11 11 11 10 10 10 10 9 8 8 7 6 6 5 5 4 5 5 5
14 12 9 7 4 5 5 7 7 6 4 3 9 9 8 3 5 8 9 11 12 17 17 15 14 12 13 14 14 15 11 9 10 10 14 18 17 17 18 18 21 20 20 21 21 20 20 19 20 19 18 17 16 14 14 15 16 16 15 14 14 13 13 13 12 12 12 12 11 11 10 10 10 9 9 8 7 6 6 5 5 5 5 5 5 6
10 10 8 9 8 7 6 6 6 4 1 10 10 8 9 5 5 7 7 8 11 14 15 16 14 14 15 16 16 14 12 7 7 10 15 18 18 19 18 18 19 20 19 19 19 21 21 20 19 19 18 17 16 15 16 16 15 15 15 14 13 13 13 13 12 12 12 12 11 10 10 9 9 8 8 7 7 6 6 5 5 5 5 5 5 5
7 6 7 9 10 9 9 7 5 2 4 5 6 10 8 6 7 5 6 4 4 9 12 14 14 15 15 15 14 11 7 4 5 12 19 20 19 18 17 17 19 21 22 22 18 18 18 18 19 20 19 16 17 16 15 15 15 15 15 15 14 14 13 13 12 12 12 11 11 11 11 9 9 8 7 6 6 5 5 4 5 5 5 6 5 5
8 7 8 8 8 9 8 9 7 2 3 5 9 10 9 8 5 5 4 3 2 3 6 10 12 13 14 14 10 5 5 5 9 18 20 21 20 19 19 20 21 22 21 19 18 18 19 18 18 19 17 16 16 16 15 15 16 15 15 14 14 14 13 13 13 12 12 12 12 11 10 10 9 7 6 6 6 6 5 4 4 4 5 5 5 6
10 7 9 9 5 6 5 8 8 10 4 8 12 9 7 6 2 3 3 2 2 4 4 4 7 11 10 10 7 7 8 9 14 17 19 20 19 20 22 22 22 22 21 21 23 22 20 18 18 19 17 16 17 15 15 17 17 16 15 15 15 14 13 13 13 13 12 12 12 11 10 9 8 6 5 5 5 6 6 5 5 4 4 5 5 5
8 6 6 5 8 7 7 8 5 2 7 9 9 3 6 4 2 4 2 5 2 4 5 5 4 8 8 9 8 8 8 11 14 15 17 18 19 21 21 21 21 19 19 19 21 21 20 19 18 17 17 16 16 15 16 16 16 15 15 17 14 14 13 13 13 13 12 12 11 11 10 9 8 7 6 6 5 5 5 4 4 4 4 3 4 4
7 6 3 2 5 6 2 3 3 2 6 4 4 8 9 7 4 3 4 4 4 4 3 5 8 9 10 11 9 9 9 11 14 14 17 16 18 19 20 22 21 21 21 21 20 19 17 18 19 17 17 16 17 15 16 15 16 17 17 16 14 14 14 13 13 12 12 12 11 10 10 9 8 7 6 6 6 6 5 4 3 4 3 4 4 4
4 2 1 4 5 7 2 4 6 4 5 7 5 5 6 5 4 3 3 3 4 4 2 4 8 9 10 11 10 9 9 11 13 15 17 17 17 19 20 20 19 21 22 20 19 18 17 18 19 19 19 18 17 16 15 15 16 18 17 15 15 14 14 13 13 12 12 12 11 11 10 9 8 7 6 5 4 4 4 3 3 3 3 3 4 4
5 4 5 6 6 2 2 4 5 3 4 5 5 5 4 3 3 2 3 4 4 3 3 5 8 9 10 12 10 11 10 14 16 17 16 16 18 20 21 20 21 22 23 22 21 18 18 19 18 19 19 19 17 16 15 16 15 15 15 15 15 14 14 13 13 12 12 11 11 10 9 9 8 7 7 6 5 5 4 4 4 3 3 3 3 3
6 6 5 7 7 6 3 2 2 2 1 3 5 5 5 5 4 3 2 3 2 3 2 4 7 9 10 10 11 11 12 17 19 18 16 17 18 18 20 21 21 21 21 20 21 20 19 19 19 20 20 18 17 16 16 16 16 16 15 15 14 14 14 13 13 12 12 12 10 9 9 8 6 7 7 6 6 5 5 4 4 5 5 5 4 3
4 4 4 4 7 5 4 3 4 5 4 3 4 3 3 5 6 5 3 4 4 4 4 4 5 8 9 9 11 12 13 15 16 17 17 17 16 18 20 20 21 23 22 20 19 19 19 19 20 20 20 18 16 16 16 16 16 16 16 15 14 14 14 13 13 12 12 11 10 9 8 8 9 6 6 5 4 6 8 7 5 6 7 7 6 6
4 7 4 3 3 6 1 2 6 4 3 6 6 5 5 5 4 6 4 4 4 5 5 7 7 8 7 8 9 11 12 14 16 16 16 16 18 21 20 21 22 23 21 20 18 19 19 20 21 20 20 17 16 16 16 16 16 16 16 15 15 14 13 13 12 12 11 10 9 9 9 8 7 7 7 6 6 6 7 8 10 9 6 6 4 6
5 5 7 3 3 2 3 1 4 3 7 3 6 3 4 5 4 4 4 4 4 5 6 7 9 9 9 9 7 10 12 14 17 16 16 15 16 18 19 22 23 21 20 20 20 20 20 20 20 20 19 17 16 16 16 15 16 15 15 15 15 14 14 13 11 10 10 9 9 10 9 7 7 7 7 8 8 8 8 7 6 8 10 10 6 4
Wind_Direction
177 201 198 205 205 202 205 207 214 225 215 209 201 201 220 209 200 216 171 176 182 182 211 194 204 164 169 171 155 142 184 172 155 155 164 166 161 157 148 140 137 135 135 131 125 129 145 170 149 98 111 175 109 137 122 68 76 56 103 95 178 183 259 241 194 190 212 175 153 189 134 156 137 117 114 90 93 71 327 96 98 93 74 49 49 54
196 210 210 206 208 202 203 207 213 223 231 220 199 204 213 215 205 161 160 156 181 204 195 209 189 159 155 167 149 147 174 186 165 164 170 172 167 164 164 144 138 123 118 126 128 130 130 109 105 74 6 118 154 77 67 125 156 136 175 166 175 169 261 284 257 232 216 233 180 162 150 130 140 111 99 96 101 108 92 89 81 72 70 60 52 42
201 211 207 202 207 202 204 204 209 223 210 237 217 196 214 203 217 142 164 167 188 206 196 192 148 172 157 168 169 165 166 183 182 181 166 176 170 172 160 140 125 127 131 131 134 137 131 118 100 82 71 314 67 122 133 151 161 150 170 196 147 201 212 216 188 244 162 201 128 112 116 116 87 101 110 111 99 94 96 78 71 69 57 45 47 37
202 210 207 198 203 207 201 205 205 214 219 215 224 201 208 193 214 156 168 178 187 206 186 184 166 154 144 150 182 191 136 173 172 175 169 166 170 175 168 145 137 134 132 128 125 120 110 101 96 100 102 110 126 164 124 177 179 187 163 190 175 179 220 181 189 191 96 133 131 94 97 103 105 111 112 112 110 100 94 86 77 65 46 40 30 24
205 195 202 199 203 207 200 198 205 202 203 216 222 209 204 205 176 168 160 188 187 211 213 185 147 178 171 166 183 188 152 174 159 152 166 160 176 173 145 143 146 132 123 123 120 118 111 109 112 120 124 134 137 167 162 190 182 183 130 135 148 174 201 237 172 212 152 136 117 117 113 109 108 105 102 90 84 77 74 67 56 54 42 41 27 27
204 197 195 201 200 203 201 194 204 194 204 206 222 228 208 209 172 200 158 183 183 201 197 188 177 195 182 183 181 169 170 160 157 165 172 173 164 172 169 155 155 126 137 129 116 120 120 119 120 115 110 99 98 157 151 149 155 162 172 165 172 193 218 165 156 154 123 125 113 108 113 107 93 86 72 73 72 76 64 57 57 47 38 36 28 24
201 194 195 199 195 197 202 200 198 196 203 205 198 231 229 219 189 177 171 185 187 201 180 199 207 189 178 191 183 181 186 174 179 173 180 186 176 182 176 166 165 142 128 119 119 123 125 121 111 105 95 83 22 55 109 95 104 103 111 133 113 114 108 102 81 82 94 94 91 87 83 87 92 98 90 79 77 77 77 71 59 53 37 27 34 26
203 194 191 197 193 196 201 203 185 191 208 214 182 205 231 251 194 183 180 195 198 193 178 200 209 214 188 198 189 186 195 189 185 176 181 189 190 181 173 162 160 148 138 133 127 126 123 120 116 113 113 110 125 84 55 73 109 100 80 88 83 74 70 64 71 69 70 78 80 85 84 83 90 89 91 87 82 77 76 70 59 62 55 38 29 22
198 195 193 192 194 197 200 195 182 196 214 210 177 186 198 244 180 174 195 194 211 192 199 202 207 222 215 181 180 183 196 192 190 189 184 181 183 176 163 156 160 149 139 134 129 123 124 125 123 122 119 123 114 91 121 123 89 80 77 78 80 79 74 65 60 63 63 66 73 84 95 95 90 96 94 88 82 80 74 73 59 55 50 41 32 27
200 206 186 187 188 193 194 196 188 187 205 226 170 168 180 206 186 183 208 196 212 207 208 198 199 226 206 185 185 185 202 192 190 191 191 188 180 170 158 150 155 143 139 136 129 127 132 133 128 125 119 105 99 98 86 86 95 96 100 90 87 82 79 77 72 70 71 78 80 88 95 103 103 104 101 90 85 75 76 82 71 58 54 37 39 45
184 154 170 195 195 198 198 196 192 184 211 147 155 174 185 194 208 192 228 220 191 197 220 200 201 217 224 186 185 182 203 192 190 193 188 186 179 137 153 163 155 141 136 128 133 139 139 135 131 126 120 119 119 119 120 122 120 116 106 102 91 86 86 80 76 68 59 59 72 77 78 92 101 88 83 95 86 71 70 65 53 54 65 58 41 32
155 160 191 204 206 208 200 188 192 184 207 145 186 185 177 196 198 201 217 227 232 212 205 210 204 199 239 174 181 189 198 196 191 191 188 178 176 131 164 169 159 142 130 132 138 140 139 137 129 124 122 124 125 126 124 121 123 106 107 102 94 85 78 75 72 72 73 69 63 68 76 76 71 77 82 82 79 77 79 68 83 85 68 53 54 34
188 187 194 196 203 207 186 192 182 185 203 175 190 193 186 175 183 198 198 209 221 225 192 213 197 205 229 204 193 188 192 193 197 195 189 184 147 136 171 165 154 133 131 139 142 143 141 135 129 126 125 126 129 129 132 131 118 116 107 95 90 82 75 72 71 73 77 79 82 82 83 80 79 81 89 89 88 86 81 73 64 63 62 50 46 35
183 193 189 192 192 206 190 197 169 185 198 188 192 193 189 184 188 198 197 205 213 221 225 205 199 224 214 217 175 174 187 195 197 199 190 187 145 156 165 161 148 136 137 142 145 149 144 136 134 134 135 135 133 131 130 127 123 116 103 92 88 82 76 74 74 78 79 78 79 82 83 86 86 86 83 83 85 79 75 70 72 67 64 69 55 45
174 185 194 185 190 187 204 209 176 189 188 194 200 200 202 201 180 190 202 194 207 203 206 230 203 204 195 135 153 177 182 196 194 195 180 169 134 150 154 147 144 139 140 145 148 147 144 142 138 138 137 137 134 130 127 124 120 113 104 97 89 87 82 82 81 77 78 77 73 76 76 85 93 90 82 73 67 68 75 77 66 61 61 65 59 50
195 196 170 192 183 183 200 198 185 186 190 197 203 213 212 215 159 205 202 218 190 205 181 215 233 169 209 130 48 168 166 174 183 177 155 148 145 154 151 151 153 151 148 153 149 148 146 142 138 134 135 135 133 130 125 120 116 108 103 93 84 83 84 85 84 81 81 80 77 75 70 76 83 87 89 87 87 86 83 76 76 76 72 67 69 63
189 189 172 173 182 185 195 195 204 196 193 178 201 208 210 208 195 184 158 3 358 221 192 190 203 137 71 168 144 179 153 165 126 111 132 147 151 157 154 146 158 159 159 155 151 149 146 143 138 136 134 133 131 129 124 119 114 112 106 101 97 92 95 96 90 87 84 85 83 82 81 84 84 85 85 88 89 86 84 81 78 76 74 74 70 70
183 170 151 171 187 184 198 201 209 194 212 170 208 201 206 222 235 186 207 178 214 212 189 185 202 188 185 189 182 167 182 168 155 157 158 160 166 161 162 156 161 165 155 151 147 147 142 137 134 131 131 129 127 123 118 114 110 106 105 97 98 100 94 95 97 94 92 86 85 83 83 82 86 89 89 89 87 84 81 81 82 80 78 74 78 76
199 173 167 188 188 173 191 200 212 202 221 214 200 178 206 183 214 210 207 194 199 207 192 200 204 219 189 187 164 186 186 183 159 168 168 172 169 167 166 162 162 157 145 146 147 139 137 137 134 132 133 131 125 119 116 116 114 112 110 100 104 103 101 102 103 102 97 93 90 91 91 92 89 86 87 86 88 89 88 85 82 78 78 80 78 78
200 179 162 184 184 169 184 196 200 187 206 235 205 199 212 219 203 203 212 202 207 199 212 194 206 223 194 186 174 183 189 185 165 173 175 174 171 173 161 163 158 146 144 144 145 145 140 137 135 136 134 131 127 123 120 116 111 105 98 100 106 113 108 102 100 99 93 88 89 86 84 81 86 91 90 87 85 87 91 93 90 94 93 83 73 67
193 175 175 176 181 167 195 192 200 186 186 201 219 207 192 213 186 219 187 227 193 207 201 204 198 213 211 163 176 181 185 181 170 171 172 173 175 168 159 157 151 147 149 149 147 147 143 139 137 137 136 130 124 121 119 117 115 114 113 115 120 112 108 106 101 97 95 95 91 91 94 93 90 89 89 90 94 94 92 90 91 76 76 80 71 75
178 178 183 173 188 189 196 185 201 191 195 198 197 209 199 185 189 200 209 200 223 206 199 206 223 215 154 143 179 178 182 180 175 165 164 172 172 160 157 142 143 151 156 154 151 147 142 140 139 139 134 129 128 125 124 123 124 123 124 124 117 113 114 109 103 98 100 98 99 97 91 91 92 89 87 92 89 88 87 86 83 87 84 76 72 69
186 175 185 181 190 184 193 175 208 208 201 203 194 209 209 196 214 196 216 190 214 233 239 213 227 166 49 146 177 178 182 177 166 162 162 168 167 159 147 144 150 154 155 155 149 143 140 140 142 141 139 135 132 130 128 128 127 130 133 153 132 114 114 111 110 105 103 102 99 97 97 97 95 95 96 92 88 86 87 88 89 85 86 83 79 67
220 202 169 184 180 173 195 175 197 221 208 204 202 215 212 210 201 215 216 204 209 210 224 181 231 119 171 347 205 187 170 160 160 162 160 168 171 153 144 158 153 153 153 149 140 139 140 142 145 143 141 138 134 133 134 133 136 139 143 121 99 109 115 116 114 110 106 106 104 101 100 97 98 99 91 89 86 84 82 85 85 80 72 72 73 77
186 211 180 179 178 169 192 180 191 206 221 211 204 206 220 216 203 213 240 226 210 220 228 208 216 160 142 220 199 181 147 152 164 171 166 165 165 152 157 160 153 151 149 148 146 144 146 149 148 143 142 140 137 136 137 141 141 145 127 123 129 123 122 117 114 112 112 110 109 107 105 105 100 94 93 93 90 87 86 78 76 74 78 73 68 62
210 199 186 186 181 182 190 182 188 188 200 201 212 202 210 219 207 196 214 221 236 206 221 214 184 97 125 165 185 154 154 150 164 163 162 164 159 155 163 157 154 150 151 149 146 146 151 151 147 146 143 140 139 140 146 146 148 139 131 135 130 131 126 122 117 116 115 114 113 113 110 105 102 99 96 94 90 87 84 85 81 80 69 70 75 72
220 212 197 198 198 201 192 180 198 196 187 207 201 211 199 214 220 215 208 223 224 201 233 220 211 153 152 176 178 172 163 162 155 163 162 151 150 155 153 153 153 154 152 150 148 148 147 144 138 126 119 126 138 146 149 151 150 141 136 136 137 134 130 126 123 119 117 116 114 114 110 106 102 99 95 91 90 88 83 75 73 74 72 69 70 73
222 207 203 204 205 209 192 201 188 192 197 203 204 208 209 201 217 216 207 221 203 207 220 211 212 170 176 168 181 175 163 163 161 155 155 152 155 159 155 151 139 143 150 150 149 150 150 143 132 131 140 148 149 150 151 151 147 140 142 137 136 133 132 130 125 121 120 120 116 110 110 108 104 98 95 93 88 84 83 82 79 73 70 68 67 68
203 203 198 222 192 280 260 203 192 188 203 198 206 206 208 206 206 216 213 226 198 219 229 195 166 180 161 174 176 176 171 166 166 156 156 154 157 157 151 152 152 157 157 155 153 152 150 148 146 147 150 153 154 154 153 152 150 143 140 141 138 136 135 133 127 126 122 119 116 112 109 107 103 103 100 94 89 85 79 76 74 79 82 82 75 63
216 202 197 207 179 220 221 296 187 189 194 200 204 206 205 208 210 211 214 215 227 217 241 309 238 195 173 166 181 177 170 155 146 148 154 158 160 161 160 161 160 160 160 159 156 152 152 149 150 150 152 154 155 154 151 151 158 148 139 145 140 137 135 135 124 125 123 118 117 117 113 108 107 101 98 93 88 82 82 80 79 79 77 73 71 69
235 177 203 197 195 195 205 211 172 220 207 212 204 207 207 210 215 211 213 213 208 228 235 188 205 215 197 182 178 165 157 150 142 160 171 171 167 164 162 164 164 162 158 159 160 156 154 156 154 153 155 155 155 154 153 154 152 145 146 145 145 140 136 130 128 125 124 121 119 117 113 109 104 103 97 93 88 86 80 74 71 68 67 69 71 71
217 220 182 209 208 199 177 204 201 214 225 232 224 211 205 204 211 202 213 206 208 213 211 201 190 196 128 168 150 150 156 159 168 176 178 174 172 169 166 166 166 165 162 152 147 149 155 157 156 155 154 156 156 155 154 155 152 151 149 147 141 132 129 128 130 127 122 121 122 118 113 110 104 95 88 84 80 77 75 75 72 74 79 83 79 76
195 208 196 197 206 213 183 209 194 203 218 223 227 219 217 216 211 208 210 208 212 217 204 212 209 161 176 155 154 157 171 171 170 179 182 177 172 177 174 169 164 164 162 160 156 159 158 151 150 151 152 157 156 155 153 153 155 151 145 139 132 126 129 133 129 129 126 122 114 109 106 102 97 93 88 82 83 86 87 84 91 87 83 77 75 71
194 196 195 188 204 203 183 185 173 209 213 218 103 261 228 219 208 216 204 202 206 208 221 211 217 214 174 164 174 174 182 180 178 177 178 178 171 180 181 175 168 163 160 157 157 151 145 149 152 156 158 158 156 155 153 154 151 143 133 130 133 136 136 132 128 123 120 116 114 114 111 108 105 103 106 111 111 108 101 99 92 95 99 107 101 90
203 203 192 185 206 193 157 174 201 218 220 62 265 39 18 261 219 213 223 213 206 203 216 216 209 225 167 186 189 182 178 165 164 168 177 174 178 184 179 172 168 161 161 159 156 156 160 158 155 156 156 157 155 153 155 149 147 137 133 135 136 137 133 129 124 124 124 122 122 122 120 118 120 115 110 105 101 96 95 94 103 103 99 94 90 89
193 200 217 179 218 151 162 188 212 223 94 214 70 211 38 287 222 226 224 209 203 208 210 221 215 221 190 198 190 170 158 151 157 170 175 177 173 180 175 171 165 162 162 165 159 160 160 160 158 157 155 151 153 155 155 151 147 141 136 135 134 132 131 131 130 128 129 129 129 125 121 118 115 114 110 108 105 103 102 105 105 104 105 104 97 92
191 206 230 191 208 201 179 205 204 80 168 139 143 188 194 196 192 195 205 208 202 213 210 210 212 211 195 179 148 135 139 146 162 171 177 179 178 180 181 174 168 170 162 163 161 159 158 158 154 151 149 153 157 156 156 148 144 138 134 134 135 136 136 135 133 132 131 129 127 126 125 123 120 116 115 111 110 109 109 108 106 103 105 100 98 98
193 215 196 232 176 250 222 213 206 213 241 196 204 113 176 213 206 207 209 225 205 213 214 213 213 201 172 154 151 147 146 159 180 185 178 180 180 178 176 178 171 166 164 154 155 153 153 153 150 147 151 155 159 156 151 148 142 137 134 137 140 140 140 138 136 136 134 130 129 128 127 125 123 120 117 116 113 113 116 115 108 101 96 96 98 94
187 218 213 217 190 205 239 226 216 229 219 318 148 152 157 153 201 166 211 232 200 204 203 212 211 186 168 163 157 151 162 186 199 188 172 177 172 173 178 175 164 161 163 164 159 156 154 153 152 153 156 158 155 153 152 148 143 137 138 141 143 143 141 140 138 137 135 132 131 129 128 126 122 120 117 116 116 118 118 114 113 118 119 113 108 100
203 196 213 214 223 202 224 228 229 213 202 117 149 160 155 137 136 173 202 223 179 186 196 201 199 179 174 168 159 169 180 209 199 176 164 169 172 171 179 170 162 164 158 157 158 154 149 150 152 159 160 157 152 153 152 146 142 139 141 144 145 145 143 140 140 135 133 132 129 126 124 122 121 120 121 119 119 116 111 109 100 93 86 86 87 85
195 206 216 224 215 205 205 236 241 205 110 131 130 141 137 150 174 196 207 64 7 189 189 194 194 179 172 168 170 183 194 50 13 132 151 160 162 165 165 166 159 162 160 158 153 151 148 156 162 159 158 153 151 152 152 147 142 144 145 145 147 145 142 139 137 137 135 131 130 130 127 125 122 121 121 122 122 120 116 110 109 107 101 90 81 83
186 202 206 217 221 220 203 227 233 203 82 129 148 131 144 149 191 217 56 344 4 203 167 183 181 175 173 174 178 191 110 75 126 137 153 162 168 165 152 157 156 161 157 151 147 153 155 156 157 154 152 149 150 152 152 147 145 146 147 148 146 143 140 140 139 138 137 138 136 130 127 125 126 130 127 128 128 124 117 115 115 110 99 91 93 87
171 194 197 203 221 237 219 217 218 237 174 193 139 139 164 226 59 55 120 67 351 115 154 148 175 158 166 158 147 103 105 120 134 148 152 157 158 158 160 160 158 159 155 144 154 158 155 152 149 156 151 152 153 154 152 149 148 147 148 146 143 141 143 141 141 143 141 135 132 131 129 129 134 140 141 139 136 129 129 127 122 122 118 118 105 93
160 207 197 200 203 223 206 221 219 17 114 166 170 191 175 69 83 358 301 123 81 129 141 145 141 143 155 149 140 115 121 131 142 153 155 158 152 151 157 158 157 151 145 148 156 155 154 145 148 150 153 154 154 152 151 152 149 149 147 143 144 143 141 144 147 143 136 135 136 136 137 142 144 145 149 147 142 132 124 119 114 101 88 78 81 85
171 233 0 276 171 223 274 63 29 319 125 96 74 79 89 99 75 37 18 86 133 118 126 138 144 154 159 154 143 138 142 150 150 160 154 152 149 151 158 164 152 144 154 160 158 152 151 147 148 150 152 153 151 151 153 154 151 149 145 144 146 144 148 149 145 141 140 143 142 144 147 151 151 152 146 151 150 141 135 135 136 114 110 94 77 69
318 281 185 240 292 331 128 124 114 102 138 110 75 66 107 102 77 23 32 79 65 96 139 126 140 152 155 147 144 149 152 153 150 143 144 146 153 160 160 155 145 152 158 156 152 155 151 147 149 152 150 151 152 152 154 154 152 149 145 145 147 150 150 147 144 145 150 146 148 153 154 153 151 151 153 152 140 131 118 110 103 99 93 89 79 72
153 201 200 226 189 208 248 172 240 97 138 183 142 119 100 150 111 63 55 58 77 97 93 123 142 152 160 149 155 147 160 142 150 149 150 159 165 168 166 150 155 163 162 158 154 152 152 152 152 152 150 149 152 153 155 151 150 147 145 148 151 151 148 146 148 150 150 149 154 160 152 154 152 147 155 160 153 145 147 136 122 101 79 85 89 89
164 161 247 231 223 227 266 82 100 108 73 155 180 155 159 134 141 154 75 65 98 89 111 132 148 157 150 155 149 150 158 150 145 150 166 172 171 170 160 162 166 167 164 156 153 154 153 155 154 153 151 150 153 154 153 151 151 149 149 151 152 150 149 149 153 153 153 156 156 154 156 154 137 166 152 150 143 134 127 112 85 65 55 36 24 23
107 281 242 202 233 213 179 166 174 174 182 172 183 205 93 132 133 125 123 137 136 135 124 143 173 149 157 157 154 150 159 163 167 167 170 174 171 163 166 169 169 167 162 156 156 158 157 156 153 152 150 150 154 155 153 152 150 152 152 154 152 152 151 151 153 154 154 157 156 157 150 146 177 163 140 143 119 78 48 35 54 96 86 49 37 29
224 243 196 235 234 233 283 206 172 224 239 189 162 177 137 119 134 134 143 144 145 145 144 155 147 140 168 164 168 161 173 169 167 170 172 176 170 165 169 170 168 166 158 155 154 157 155 152 150 150 150 152 155 154 153 151 152 154 156 154 154 154 152 152 157 157 160 161 158 148 155 166 168 141 143 136 117 108 88 59 57 40 71 100 87 66
245 5 354 302 275 23 100 333 22 1 119 26 41 72 163 162 171 168 167 169 170 157 165 152 145 155 168 173 193 172 176 171 165 173 174 173 165 164 173 170 168 164 156 155 154 156 152 150 150 149 151 152 154 152 151 152 154 157 158 155 155 155 154 158 159 161 163 162 157 162 168 161 150 157 153 141 137 129 130 133 87 63 88 104 122 122